FW8091 Weather Reports


Display with metric or nautical units.
time (UTC)temp
F
wind
direction
speed
MPH
gust
MPH
rain 1hr
in
rain 24hr
in
rain mn
in
humidity
%
barometer
mb
20260507001547 64 43 6.0 12.0 0.00 0.00 0.00 61 1013.7
20260507000046 64 33 8.0 12.0 0.00 0.00 0.00 60 1013.6
20260506234552 65 58 3.0 11.0 0.00 0.00 0.00 60 1014.0
20260506233041 64 40 4.0 10.0 0.00 0.00 0.00 60 1014.1
20260506231540 64 40 4.0 10.0 0.00 0.00 0.00 60 1014.2
20260506230039 64 32 4.0 9.0 0.00 0.00 0.00 60 1014.3
20260506224544 65 47 3.0 8.0 0.00 0.00 0.00 60 1014.4
20260506223037 65 50 5.0 10.0 0.00 0.00 0.00 60 1014.2
20260506221536 65 64 7.0 11.0 0.00 0.00 0.00 60 1014.0
20260506220037 65 62 6.0 12.0 0.00 0.00 0.00 60 1014.3
20260506214535 65 47 4.0 11.0 0.00 0.00 0.00 60 1014.5
20260506213033 65 67 6.0 11.0 0.00 0.00 0.00 60 1014.9
20260506211531 65 73 5.0 11.0 0.00 0.00 0.00 60 1014.8
20260506210035 65 73 7.0 11.0 0.00 0.00 0.00 60 1014.8
20260506204545 65 96 8.0 11.0 0.00 0.00 0.00 60 1014.8
20260506203030 65 120 7.0 11.0 0.00 0.00 0.00 61 1014.5
20260506201530 65 82 4.0 11.0 0.00 0.00 0.00 61 1014.3
20260506200024 65 94 6.0 12.0 0.00 0.00 0.00 61 1014.0
20260506194524 65 97 8.0 11.0 0.00 0.00 0.00 61 1013.9
20260506193020 65 88 6.0 13.0 0.00 0.00 0.00 61 1013.6
20260506191520 65 68 9.0 13.0 0.00 0.00 0.00 61 1013.5
20260506190019 65 93 8.0 12.0 0.00 0.00 0.00 60 1013.5
20260506184519 65 91 9.0 13.0 0.00 0.00 0.00 60 1013.3
20260506183016 65 86 7.0 11.0 0.00 0.00 0.00 60 1013.1
20260506181524 65 102 9.0 14.0 0.00 0.00 0.00 60 1013.0
20260506180016 65 65 7.0 14.0 0.00 0.00 0.00 60 1013.0
20260506174515 65 88 11.0 14.0 0.00 0.00 0.00 60 1013.1
20260506173014 66 95 11.0 13.0 0.00 0.00 0.00 61 1013.0
20260506171522 66 118 10.0 16.0 0.00 0.00 0.00 60 1012.9
20260506170012 66 99 9.0 15.0 0.00 0.00 0.00 60 1012.9
20260506164512 66 85 13.0 19.0 0.00 0.00 0.00 59 1013.0
20260506163010 66 85 13.0 20.0 0.00 0.00 0.00 59 1013.0
20260506161509 66 89 11.0 22.0 0.00 0.00 0.00 60 1013.1
20260506160008 66 83 11.0 21.0 0.00 0.00 0.00 60 1013.0
20260506154508 66 96 13.0 23.0 0.00 0.00 0.00 60 1013.0
20260506153037 66 81 16.0 21.0 0.00 0.00 0.00 59 1012.9
20260506151555 66 97 13.0 19.0 0.00 0.00 0.00 58 1013.1
20260506150035 66 54 13.0 19.0 0.00 0.00 0.00 57 1013.2
20260506144535 66 68 12.0 20.0 0.00 0.00 0.00 56 1013.2
20260506143044 67 56 12.0 17.0 0.00 0.00 0.00 55 1013.2
20260506141534 67 41 12.0 17.0 0.00 0.00 0.00 56 1013.2
20260506140036 66 75 11.0 17.0 0.00 0.00 0.00 56 1013.3
20260506134532 67 73 12.0 17.0 0.00 0.00 0.00 56 1013.4
20260506133031 66 56 13.0 18.0 0.00 0.00 0.00 55 1013.5
20260506131531 67 71 10.0 17.0 0.00 0.00 0.00 56 1013.6
20260506130028 66 73 11.0 18.0 0.00 0.00 0.00 57 1013.6
20260506124527 67 70 14.0 18.0 0.00 0.00 0.00 57 1014.0
20260506123027 67 68 12.0 17.0 0.00 0.00 0.00 58 1014.0
20260506121527 67 65 12.0 16.0 0.00 0.00 0.00 57 1014.0
20260506120024 67 93 12.0 18.0 0.00 0.00 0.00 57 1014.2
20260506114535 67 64 12.0 20.0 0.00 0.00 0.00 58 1014.1
20260506113023 67 57 12.0 19.0 0.00 0.00 0.00 58 1014.2
20260506111522 66 62 14.0 24.0 0.00 0.00 0.00 59 1014.2
20260506110022 66 45 16.0 23.0 0.00 0.00 0.00 59 1014.2
20260506104613 67 29 13.0 24.0 0.00 0.00 0.00 59 1014.3
20260506103053 67 24 14.0 24.0 0.00 0.00 0.00 58 1014.3
20260506101556 67 48 15.0 24.0 0.00 0.00 0.00 58 1014.4
20260506100048 66 32 17.0 23.0 0.00 0.00 0.00 57 1014.3
20260506094555 66 24 16.0 25.0 0.00 0.00 0.00 57 1014.3
20260506093053 67 41 17.0 25.0 0.00 0.00 0.00 56 1014.2
20260506091543 67 62 17.0 24.0 0.00 0.00 0.00 56 1014.0
20260506090043 67 33 14.0 22.0 0.00 0.00 0.00 55 1013.7
20260506084539 66 43 16.0 23.0 0.00 0.00 0.00 55 1013.7
20260506083040 66 29 13.0 20.0 0.00 0.00 0.00 58 1013.7
20260506081536 66 43 11.0 22.0 0.00 0.00 0.00 59 1013.6
20260506073041 66 64 13.0 18.0 0.00 0.00 0.00 58 1013.7
20260506071530 66 48 12.0 18.0 0.00 0.00 0.00 58 1013.8
20260506061554 62 16 5.0 10.0 0.00 0.00 0.00 47 1013.5
20260506044510 61 35 6.0 10.0 0.00 0.00 0.00 50 1012.5
20260506043005 62 32 7.0 10.0 0.00 0.00 0.00 51 1012.4
20260506041606 62 8 5.0 8.0 0.00 0.00 0.00 53 1012.3
20260506040057 62 339 2.0 4.0 0.00 0.00 0.00 56 1012.4
20260506034556 62 354 3.0 5.0 0.00 0.00 0.00 58 1012.5
20260506033100 62 317 2.0 4.0 0.00 0.00 0.00 58 1012.7
20260506031555 62 308 3.0 4.0 0.00 0.00 0.00 58 1012.7
20260506030051 63 359 2.0 3.0 0.00 0.00 0.00 58 1012.7
20260506024550 63 359 2.0 4.0 0.00 0.00 0.00 59 1012.7
20260506023051 63 359 2.0 4.0 0.00 0.00 0.00 60 1012.6
20260506021551 62 359 3.0 5.0 0.00 0.00 0.00 60 1012.8
20260506020045 63 330 3.0 4.0 0.00 0.00 0.00 59 1012.7
20260506014551 63 345 3.0 6.0 0.00 0.00 0.00 58 1012.8
20260506013044 63 58 0.0 2.0 0.00 0.00 0.00 58 1012.8
20260506011542 63 57 1.0 3.0 0.00 0.00 0.00 57 1012.9
20260506010038 63 359 0.0 1.0 0.00 0.00 0.00 56 1012.8
20260506004542 63 323 0.0 2.0 0.00 0.00 0.00 56 1012.9
20260506003036 63 359 0.0 3.0 0.00 0.00 0.00 55 1013.1